Weather observations for the past three days for
North Adams Harriman-and-West Airport
Imperial (Metric)
Date Time (edt) Wind (mph) Vis. (mi.) Weather Sky Cond. Temperature (ºF) Relative Humidity Wind Chill (°F) Heat Index (°F) Pressure Precipitation (in)
Air Dwpt 6 hour altimeter (in) sea level (mb) 1 hr 3 hr 6 hr
Max. Min.
21 01:52 Calm 7.00 Overcast OVC002 68 68 91.9 66.9 100% 30.22 1023.1
21 00:52 Calm 9.00 Mostly Cloudy BKN004 68 68 100% 30.24 1023.5
20 23:52 Calm 7.00 Fair CLR 68 68 100% 30.25 1024.0
20 22:52 Calm 10.00 Fair CLR 69.1 69.1 100% 30.26 1024.3
20 21:52 Calm 10.00 Fair CLR 70 70 100% 30.25 1024.2
20 20:52 SE 3 10.00 Fair CLR 70 70 100% 30.25 1024.2
20 17:52 W 7 10.00 Partly Cloudy SCT090 87.1 72 61% 94 30.18 1021.5
20 16:52 SW 8 10.00 Partly Cloudy SCT050 91 71.1 52% 98 30.19 1022.1
20 15:52 Vrbl 5 10.00 Partly Cloudy SCT050 SCT060 91.9 73 54% 101 30.2 1022.2
20 14:52 Calm 10.00 A Few Clouds FEW048 FEW055 FEW075 91 75 59% 102 30.21 1022.7
20 13:52 N 3 10.00 A Few Clouds FEW040 FEW050 91 75.9 91 72 61% 103 30.25 1023.9
20 12:52 Calm 10.00 Fair CLR 89.1 75 63% 99 30.27 1024.7
20 11:52 W 6 10.00 Fair CLR 86 73.9 67% 94 30.29 1025.2
20 10:52 Calm 10.00 Fair CLR 82 73.9 77% 88 30.29 1025.5
20 09:52 Calm 10.00 Fair CLR 79 73 82% 82 30.3 1025.8
20 08:52 Calm 10.00 Fair CLR 75 71.1 88% 75 30.31 1026.0
20 07:52 Calm 9.00 Fair CLR 72 71.1 72 66.9 97% 30.3 1025.8
20 06:52 Calm 6.00 Fog/Mist CLR 69.1 69.1 100% 30.29 1025.6
20 05:52 Calm 2.50 Fog/Mist CLR 66.9 66.9 100% 30.28 1025.3
20 04:52 Calm 6.00 Fog/Mist OVC003 68 68 100% 30.29 1025.4
20 03:52 Calm 4.00 Fog/Mist CLR 66.9 66.9 100% 30.29 1025.2
20 02:52 Calm 4.00 Fog/Mist BKN049 68 68 100% 30.29 1025.4
20 01:52 Calm 8.00 Fair CLR 69.1 69.1 75 69.1 100% 30.3 1025.6
20 00:52 E 5 10.00 Fair CLR 70 70 100% 30.3 1025.6
19 23:52 Vrbl 3 10.00 Fair CLR 71.1 70 96% 30.3 1025.7
19 22:52 Calm 10.00 Fair CLR 72 71.1 97% 30.31 1026.2
19 21:52 S 3 10.00 Fair CLR 71.1 71.1 100% 30.31 1026.1
19 20:52 E 3 10.00 Fair CLR 73 71.1 94% 30.3 1025.8
19 19:52 E 7 10.00 Fair CLR 73.9 72 93 72 94% 30.31 1026.0 0.08
19 18:52 E 6 10.00 Fair CLR 73.9 71.1 91% 30.31 1026.1
19 17:52 SE 5 10.00 Thunderstorm in Vicinity CLR 73.9 72 94% 30.29 1025.7 0.08
19 16:52 SW 10 10.00 Thunderstorm FEW040 BKN060 OVC100 80.1 69.1 69% 83 30.28 1025.2
19 15:52 Vrbl 7 10.00 Thunderstorm in Vicinity BKN055 BKN070 OVC080 84.9 73 68% 92 30.26 1024.4
19 14:52 W 3 10.00 Mostly Cloudy BKN048 BKN055 BKN095 91 73.9 57% 101 30.26 1024.2
19 13:52 SW 8 10.00 Mostly Cloudy SCT049 BKN065 93 73 93 75 52% 102 30.27 1024.6
19 12:52 Calm 10.00 Mostly Cloudy BKN039 90 75 62% 100 30.28 1025.0
19 11:52 N 6 10.00 A Few Clouds FEW036 89.1 75 63% 99 30.3 1025.5
Date Time (edt) Wind (mph) Vis. (mi.) Weather Sky Cond. Air Dwpt Max. Min. Relative Humidity Wind Chill (°F) Heat Index (°F) altimeter (in) sea level (mb) 1 hr 3 hr 6 hr
6 hour
Temperature (ºF) Pressure Precipitation (in)